Wind_Speed
3 3 4 5 5 5 5 5 4 4 3 3 3 3 2 2 2 2 1 1 0 1 1 1 1 1 0 0 1 2 2 2 3 3 4 5 5 5 5 5 4 4 4
2 3 4 4 5 4 4 4 3 2 2 1 1 1 1 0 0 1 0 1 1 1 2 2 2 2 2 2 3 3 4 4 4 4 5 6 6 6 7 7 7 6 6
2 3 3 4 4 4 3 3 2 2 1 1 1 1 1 1 2 2 2 2 2 2 3 3 3 4 4 4 4 4 5 5 5 6 6 7 7 8 8 8 8 8 8
2 3 3 4 4 4 3 2 2 1 1 2 2 2 2 2 3 4 4 4 4 4 5 5 6 6 6 6 6 6 6 6 6 6 7 8 9 9 10 10 10 10 10
2 3 4 4 4 4 3 3 3 3 3 3 3 4 4 4 5 5 6 6 6 7 7 8 8 8 7 8 8 8 9 9 8 8 9 10 11 11 11 12 12 12 12
2 2 3 4 4 4 4 4 4 4 4 4 5 5 6 6 7 7 7 8 9 9 9 10 10 10 10 10 10 11 11 11 11 10 11 12 13 13 13 13 14 14 14
3 2 2 3 4 5 5 5 5 5 6 6 6 7 8 8 9 9 10 10 10 11 11 12 12 12 13 12 13 13 13 13 13 13 13 13 14 14 14 14 15 16 16
3 3 3 4 5 5 6 6 6 7 7 7 8 8 9 10 11 11 11 12 13 13 13 14 14 15 15 14 15 15 15 16 15 15 15 15 15 16 16 17 17 17 18
3 4 4 4 5 6 6 7 8 8 8 8 9 10 10 12 13 13 13 14 14 15 15 15 16 17 17 17 17 17 17 17 17 17 18 18 18 18 18 18 19 19 19
5 5 5 5 6 7 7 8 8 9 9 9 10 11 11 12 13 14 15 15 15 16 16 17 18 18 19 19 19 19 19 19 19 20 20 20 20 20 20 20 21 21 22
6 6 6 6 6 7 8 9 9 9 10 11 12 12 13 13 14 15 16 16 17 17 18 18 18 19 20 20 21 20 20 21 21 21 21 21 22 22 22 23 23 24 24
7 7 7 7 7 8 8 9 9 10 11 12 13 13 13 14 15 16 17 17 18 18 18 19 19 20 19 20 20 21 21 22 23 23 23 24 24 23 23 24 25 26 26
8 7 8 8 8 9 9 10 10 11 11 12 13 14 15 15 16 16 17 17 18 18 19 19 19 20 20 21 21 21 23 24 24 24 25 25 25 25 25 26 26 27 28
9 8 9 9 9 9 10 11 11 11 12 13 14 15 15 15 16 16 17 18 18 17 19 19 20 20 21 22 22 23 24 24 25 26 26 26 26 26 27 27 28 29 29
9 9 9 9 10 10 11 11 11 12 13 14 14 15 15 16 16 17 17 18 17 17 18 19 20 21 22 23 23 23 23 24 25 26 27 27 27 28 29 30 30 31 31
9 9 9 9 10 11 12 12 12 13 14 15 15 16 16 17 17 17 17 18 18 18 19 20 21 22 22 23 24 24 24 25 26 26 26 26 27 29 30 30 30 31 32
9 9 9 10 11 11 12 12 13 14 14 15 15 16 17 17 16 17 17 18 19 19 20 20 21 22 22 23 24 25 25 25 25 26 26 27 28 29 29 30 31 32 32
10 10 10 10 11 12 12 13 13 14 15 15 16 16 17 17 17 18 18 19 19 20 20 20 21 22 23 23 24 24 24 25 25 26 27 28 28 29 29 30 31 32 33
10 10 11 12 12 12 12 13 14 15 15 16 16 16 17 17 18 19 19 19 19 20 20 21 22 22 23 23 24 24 25 25 26 27 28 29 30 30 31 32 32 32 33
11 11 12 12 12 12 13 14 14 14 15 16 16 17 18 18 18 19 19 20 20 21 22 22 22 23 23 24 24 25 26 27 28 29 30 30 31 32 33 33 33 33 33
12 13 13 13 13 13 13 14 14 15 16 17 18 18 18 18 18 19 20 20 21 22 22 22 23 24 24 25 25 26 27 28 29 30 30 31 32 33 33 33 32 33 33
13 13 13 13 13 14 14 14 15 16 17 18 18 19 19 19 20 20 20 21 21 22 22 23 24 25 25 26 27 27 27 28 29 29 30 31 32 32 33 33 33 33 33
14 14 14 14 14 15 16 16 16 17 18 18 18 19 19 20 20 21 21 21 22 22 23 24 24 25 26 27 28 28 28 29 29 30 31 31 32 32 32 32 32 32 33
15 15 15 15 16 16 17 17 18 18 19 19 19 20 21 21 22 22 22 22 23 23 24 24 25 26 27 27 28 28 28 29 30 30 30 30 31 31 31 30 30 31 32
15 16 16 16 16 17 17 18 19 19 19 20 20 21 21 22 22 22 22 23 23 23 24 25 26 27 27 28 28 29 29 29 29 30 30 30 30 29 30 30 30 31 32
16 16 17 17 18 18 18 19 19 19 20 20 20 21 22 22 23 23 23 24 24 24 25 25 26 27 28 28 29 29 29 29 29 29 30 30 29 29 29 29 29 30 30
Wind_Direction
136 135 133 134 130 125 122 118 118 112 110 112 106 96 98 104 88 92 107 115 93 75 17 357 9 353 267 271 259 246 243 246 244 240 236 237 238 240 243 248 253 255 256
155 153 149 147 145 145 144 136 129 122 124 130 114 102 85 57 45 32 325 266 266 284 299 302 308 310 294 291 284 269 263 261 256 250 247 246 247 248 250 253 256 258 259
166 167 167 166 165 165 168 171 169 170 162 225 226 240 274 293 291 292 284 276 275 279 286 291 297 299 292 285 282 281 274 271 264 259 255 254 254 255 256 257 259 260 260
185 193 194 188 185 187 199 207 217 228 263 268 265 271 283 296 291 289 283 282 284 286 285 288 290 289 286 284 281 283 283 275 271 265 262 260 259 259 258 259 260 262 262
245 226 213 207 207 209 219 230 240 257 273 274 271 270 280 294 294 293 287 282 282 283 284 285 285 289 291 290 284 282 283 281 278 271 269 267 264 263 262 262 262 262 263
264 250 232 229 223 229 235 240 251 263 273 280 276 274 279 288 289 289 288 285 283 282 282 283 283 286 287 287 284 280 280 281 282 281 277 272 267 264 264 265 266 265 266
257 266 249 235 233 237 239 246 255 264 272 280 281 280 284 289 293 288 288 287 286 285 284 282 283 285 284 286 284 281 278 278 280 280 280 277 272 269 269 269 268 267 267
263 268 271 250 244 245 255 260 267 270 273 279 283 285 288 290 290 288 287 288 287 287 286 286 284 286 285 284 284 283 280 279 279 278 278 275 273 271 269 269 268 267 268
286 276 275 260 257 256 262 271 279 277 279 285 286 287 288 290 291 291 290 290 289 288 287 288 287 288 287 285 284 282 281 279 279 278 277 275 275 274 271 270 268 268 267
300 292 283 279 272 264 268 274 276 277 281 285 289 289 290 293 292 288 290 293 293 291 290 288 285 285 285 284 283 281 280 278 277 277 277 275 275 274 274 273 271 269 268
306 300 290 285 277 272 273 275 277 280 286 288 290 291 293 294 291 290 290 291 294 294 292 290 288 287 286 283 282 283 281 278 279 278 279 277 274 272 272 274 274 271 270
301 297 292 287 285 283 282 277 281 287 291 292 293 293 292 292 291 291 291 292 294 294 292 291 290 289 290 287 285 283 282 281 280 278 278 277 276 274 273 272 274 275 273
304 300 297 292 288 287 287 286 289 295 296 296 297 296 294 293 291 292 293 293 294 293 294 294 293 291 290 290 289 286 285 283 281 279 277 276 275 276 276 275 276 275 274
302 297 294 294 289 286 288 289 292 294 296 298 297 295 297 298 297 297 296 296 297 296 297 297 296 296 295 292 292 289 288 287 286 284 282 279 277 276 276 277 276 276 274
308 302 294 291 290 289 289 290 291 294 296 298 297 297 297 296 298 299 298 297 296 296 297 297 298 299 298 296 294 294 293 290 289 287 284 282 281 279 278 277 277 276 277
304 301 294 289 290 290 290 290 292 295 296 297 297 296 297 298 297 298 298 299 298 297 297 296 297 299 299 297 295 294 293 292 292 290 288 285 286 284 280 278 277 277 277
305 301 299 297 294 296 294 294 295 296 298 298 298 297 297 298 300 301 300 301 300 299 298 298 299 300 300 299 298 297 295 294 292 290 290 290 289 288 286 283 281 279 279
306 304 303 303 301 301 299 298 297 298 299 299 299 299 298 298 300 301 300 300 299 299 299 299 300 300 300 300 300 299 296 294 292 291 291 290 290 290 289 287 286 284 282
305 304 303 302 303 302 301 301 298 299 300 300 301 302 301 299 299 300 300 300 300 300 301 300 301 302 301 301 300 300 298 295 295 295 293 292 291 290 290 289 287 285 283
305 305 303 302 301 300 300 302 301 304 304 304 304 304 303 301 300 300 300 301 301 301 302 302 302 302 302 302 301 300 298 297 297 297 295 294 294 294 293 291 288 287 285
304 304 306 304 301 300 302 302 304 306 307 306 305 305 304 303 302 302 301 301 301 302 303 303 303 303 303 304 303 301 300 299 298 298 297 297 297 296 294 291 288 287 286
310 307 308 308 306 305 304 305 306 307 308 308 308 307 306 305 304 302 301 301 303 304 304 303 303 303 304 305 304 303 302 301 300 300 299 298 298 297 295 292 289 287 286
311 309 308 306 307 307 307 306 306 307 309 310 310 310 309 308 306 305 304 302 303 303 304 304 304 304 304 304 304 304 304 303 303 302 300 299 299 298 296 293 291 288 286
306 307 305 305 304 304 304 306 307 307 310 311 309 309 309 309 307 306 306 305 304 304 304 305 305 305 306 307 307 306 305 305 304 304 303 302 301 300 298 295 293 293 291
307 306 305 304 304 303 303 304 307 309 311 313 311 309 310 309 308 308 307 307 307 306 305 305 305 305 306 306 306 307 306 305 305 304 304 304 303 303 302 300 296 295 293
307 305 305 304 303 302 302 303 307 309 310 313 314 314 312 311 311 311 309 308 307 306 307 307 307 307 307 307 308 307 306 306 305 304 304 304 304 303 303 301 298 296 295
Height
5905 5905 5905 5905 5905 5905 5906 5906 5906 5907 5907 5907 5907 5907 5907 5907 5906 5906 5906 5906 5906 5905 5905 5905 5904 5904 5904 5903 5903 5903 5903 5903 5903 5902 5902 5903 5903 5903 5903 5903 5903 5903 5903
5905 5905 5905 5906 5906 5906 5906 5907 5907 5907 5907 5907 5908 5907 5907 5907 5906 5906 5906 5906 5905 5905 5905 5905 5904 5904 5903 5903 5903 5902 5902 5902 5902 5901 5901 5902 5902 5902 5902 5902 5902 5902 5902
5905 5905 5906 5906 5906 5906 5906 5907 5907 5907 5907 5907 5908 5908 5907 5907 5906 5906 5905 5905 5905 5905 5904 5904 5904 5903 5903 5902 5902 5902 5901 5901 5900 5900 5900 5900 5900 5900 5900 5900 5900 5900 5900
5905 5905 5906 5906 5906 5906 5906 5907 5907 5907 5907 5907 5907 5907 5907 5906 5906 5906 5905 5905 5904 5904 5904 5903 5903 5902 5902 5901 5901 5900 5900 5899 5899 5899 5898 5898 5898 5898 5898 5898 5898 5898 5898
5905 5905 5905 5905 5905 5906 5906 5906 5906 5906 5906 5906 5906 5906 5906 5906 5905 5905 5904 5904 5903 5903 5903 5902 5902 5901 5900 5900 5899 5898 5898 5898 5897 5897 5896 5896 5896 5896 5896 5895 5895 5895 5895
5904 5904 5905 5905 5905 5905 5905 5905 5906 5905 5905 5905 5905 5905 5905 5904 5904 5903 5903 5902 5902 5901 5901 5900 5900 5899 5898 5898 5897 5896 5896 5895 5895 5894 5894 5893 5893 5893 5892 5892 5892 5892 5892
5904 5904 5904 5904 5904 5904 5904 5904 5904 5904 5904 5904 5904 5904 5903 5903 5902 5902 5901 5900 5900 5899 5899 5898 5897 5897 5896 5895 5895 5894 5893 5893 5892 5892 5891 5890 5890 5889 5889 5889 5888 5888 5888
5903 5903 5903 5903 5903 5903 5903 5903 5903 5903 5903 5903 5903 5902 5902 5902 5900 5900 5899 5898 5897 5897 5896 5895 5894 5893 5892 5892 5891 5890 5890 5889 5889 5888 5888 5887 5886 5886 5885 5885 5884 5884 5884
5902 5902 5902 5902 5902 5902 5902 5902 5902 5902 5901 5901 5901 5900 5900 5899 5898 5897 5896 5895 5895 5894 5893 5892 5891 5890 5889 5888 5887 5886 5886 5885 5885 5884 5883 5883 5882 5882 5881 5881 5880 5880 5879
5901 5901 5901 5901 5900 5900 5900 5900 5900 5900 5899 5899 5899 5898 5897 5896 5895 5894 5894 5892 5891 5890 5889 5888 5887 5887 5885 5884 5883 5882 5881 5880 5880 5879 5879 5878 5877 5877 5876 5876 5875 5874 5874
5900 5900 5900 5899 5899 5899 5898 5898 5898 5898 5897 5897 5896 5895 5894 5893 5892 5891 5891 5889 5888 5886 5885 5884 5883 5882 5881 5880 5878 5877 5876 5876 5875 5874 5873 5872 5872 5871 5870 5870 5869 5868 5868
5899 5899 5898 5898 5898 5897 5897 5896 5896 5895 5895 5894 5893 5892 5891 5890 5889 5888 5887 5886 5884 5883 5881 5880 5879 5878 5876 5875 5873 5872 5871 5870 5869 5868 5867 5867 5866 5865 5864 5863 5863 5862 5861
5898 5897 5897 5896 5896 5895 5895 5894 5894 5893 5892 5892 5890 5889 5888 5887 5886 5885 5883 5882 5880 5878 5877 5875 5874 5873 5871 5870 5868 5867 5866 5864 5863 5862 5861 5860 5860 5859 5858 5857 5856 5855 5854
5896 5896 5895 5894 5893 5893 5892 5892 5891 5890 5890 5889 5887 5886 5885 5883 5882 5881 5879 5878 5876 5875 5873 5871 5869 5868 5866 5864 5863 5861 5860 5859 5857 5856 5855 5854 5853 5852 5851 5850 5849 5848 5847
5894 5894 5893 5892 5891 5891 5890 5889 5888 5888 5887 5886 5884 5883 5881 5880 5878 5877 5875 5874 5873 5871 5869 5867 5865 5863 5861 5859 5858 5856 5854 5853 5851 5850 5848 5847 5846 5845 5844 5842 5841 5840 5838
5892 5891 5890 5890 5889 5888 5887 5886 5885 5884 5883 5882 5881 5879 5878 5876 5875 5873 5871 5869 5868 5866 5864 5862 5860 5858 5856 5854 5852 5850 5849 5847 5845 5843 5842 5840 5839 5837 5835 5834 5833 5831 5830
5890 5889 5888 5888 5887 5886 5885 5883 5882 5881 5880 5879 5877 5876 5874 5872 5871 5869 5867 5865 5863 5862 5860 5858 5855 5853 5851 5849 5847 5845 5843 5841 5839 5837 5835 5833 5832 5830 5827 5826 5824 5822 5821
5888 5887 5886 5885 5884 5883 5882 5881 5879 5878 5877 5875 5873 5872 5870 5868 5867 5865 5863 5861 5859 5857 5855 5853 5851 5848 5846 5843 5841 5839 5836 5834 5832 5830 5828 5826 5824 5822 5819 5817 5815 5813 5812
5887 5885 5884 5883 5881 5880 5879 5877 5876 5875 5873 5871 5870 5868 5866 5864 5862 5860 5858 5856 5854 5852 5850 5848 5845 5843 5840 5838 5835 5833 5830 5828 5825 5823 5821 5818 5816 5813 5811 5809 5806 5804 5802
5884 5883 5881 5880 5878 5877 5876 5874 5873 5871 5870 5868 5866 5864 5862 5860 5857 5855 5853 5851 5849 5847 5845 5843 5840 5838 5835 5832 5830 5827 5824 5821 5819 5816 5813 5811 5808 5805 5802 5799 5797 5795 5793
5882 5881 5879 5877 5875 5874 5873 5871 5870 5868 5866 5864 5862 5860 5857 5855 5853 5851 5849 5847 5844 5842 5840 5837 5835 5832 5830 5827 5824 5821 5818 5815 5812 5809 5806 5803 5799 5796 5793 5790 5787 5785 5783
5880 5878 5876 5874 5873 5871 5870 5868 5867 5865 5862 5860 5858 5855 5853 5850 5848 5846 5844 5842 5840 5837 5835 5832 5829 5827 5824 5820 5817 5814 5811 5808 5805 5802 5798 5794 5791 5787 5784 5780 5778 5775 5773
5877 5875 5873 5872 5870 5868 5867 5865 5863 5861 5858 5856 5853 5851 5848 5846 5843 5841 5839 5836 5834 5832 5829 5827 5824 5820 5817 5814 5811 5807 5804 5800 5797 5793 5789 5786 5782 5778 5775 5771 5768 5766 5763
5874 5872 5870 5869 5867 5865 5863 5861 5859 5857 5854 5851 5849 5846 5844 5841 5838 5836 5833 5831 5828 5826 5823 5820 5817 5814 5811 5807 5804 5801 5797 5793 5789 5786 5782 5778 5774 5770 5766 5763 5760 5757 5754
5871 5869 5867 5865 5863 5861 5859 5857 5855 5853 5850 5847 5844 5842 5839 5836 5834 5831 5828 5825 5823 5820 5817 5814 5811 5807 5804 5801 5797 5794 5790 5786 5782 5779 5774 5770 5766 5762 5759 5755 5751 5748 5745
5867 5865 5864 5861 5859 5857 5855 5853 5851 5848 5846 5843 5840 5837 5835 5832 5829 5825 5822 5820 5817 5814 5811 5807 5804 5801 5797 5794 5790 5787 5783 5779 5775 5771 5767 5763 5759 5755 5751 5748 5743 5740 5736